SCP
1 1 1 1 1 1 1 1 1 1 1 1 1 1 1 1 1 1 1 1 1 1 1 0 0 0 0 0 0 0 0 0 0 0 0 0 0 0 0 0 0 0 0
1 1 1 1 1 1 1 1 1 1 1 1 1 1 1 1 1 1 1 1 1 1 1 0 0 0 0 0 0 0 0 0 0 0 0 0 0 0 0 0 0 0 0
2 2 2 2 2 1 1 1 1 1 1 1 1 1 1 1 1 1 1 1 1 1 0 0 0 0 0 0 0 0 0 0 0 0 0 0 0 0 0 0 0 0 0
2 2 2 2 2 2 1 1 1 1 1 1 1 1 1 1 1 1 1 1 1 1 0 0 0 0 0 0 0 0 0 0 0 0 0 0 0 0 1 1 1 1 0
2 2 3 3 3 2 1 1 1 1 1 1 1 1 1 1 1 1 1 1 1 1 1 1 1 0 0 0 0 0 0 0 0 0 0 0 0 0 1 1 1 1 1
3 3 3 3 3 2 2 1 1 1 1 1 1 1 1 1 1 1 1 1 1 1 1 1 1 1 1 1 0 0 0 1 1 0 0 0 0 0 1 1 1 1 1
3 3 3 3 3 2 2 1 1 1 1 1 1 1 1 1 1 1 1 1 1 1 1 1 1 1 1 1 1 0 0 1 1 1 0 0 0 1 1 1 1 1 1
4 4 3 3 2 2 2 2 1 1 1 1 1 1 1 1 1 1 1 1 1 1 1 1 1 1 1 1 1 1 0 1 1 1 0 0 0 1 1 1 1 1 1
5 4 4 3 2 2 2 2 2 1 1 1 1 1 1 1 1 1 1 1 1 1 1 1 1 1 1 1 1 1 1 1 1 1 0 0 1 1 1 1 1 1 1
5 4 4 3 3 2 2 2 2 1 1 1 1 1 1 1 1 1 1 1 1 1 1 1 1 1 1 1 1 1 1 1 1 1 0 0 1 1 1 1 1 1 1
3 3 3 3 3 3 3 2 2 1 1 1 1 1 1 1 1 1 1 1 1 1 1 1 1 1 1 1 1 1 1 1 1 1 1 1 1 1 1 1 1 1 1
2 2 2 2 2 2 2 2 2 1 1 1 1 1 1 1 1 1 1 1 2 2 1 1 1 1 1 1 1 1 1 1 1 1 1 1 1 1 1 1 1 1 1
2 2 2 2 2 2 2 2 1 1 1 1 1 1 1 1 1 1 1 2 2 2 1 1 1 1 1 1 1 1 1 1 1 1 1 1 1 1 1 1 1 1 1
3 2 2 2 2 2 2 1 1 1 1 1 1 2 1 1 1 1 1 2 2 2 1 1 1 1 1 1 1 1 1 1 1 1 1 1 1 1 1 1 1 1 1
3 3 2 2 2 2 2 2 2 2 2 2 2 2 1 1 1 1 1 1 1 1 1 1 1 1 1 1 1 1 1 1 1 1 1 1 1 2 1 1 1 1 1
4 4 3 3 2 2 2 2 2 2 2 2 2 2 1 1 1 1 1 1 1 1 1 1 1 1 1 1 1 1 1 1 1 1 1 1 1 1 1 1 1 1 1
4 4 3 3 2 2 2 2 2 2 2 2 2 1 1 1 1 1 1 1 1 1 1 1 1 1 1 0 0 1 1 1 1 1 1 1 1 1 1 2 2 1 1
3 3 2 2 2 2 2 2 2 2 2 2 1 1 1 1 1 1 1 1 1 1 1 1 1 1 1 0 0 0 0 1 1 1 1 1 1 1 1 2 2 2 2
2 2 2 2 2 2 2 2 2 2 2 2 2 1 1 1 1 1 1 1 1 1 1 1 1 0 0 0 0 0 0 1 1 0 1 1 1 1 1 1 2 2 2
1 2 2 2 2 2 2 2 2 2 2 2 2 2 2 2 2 1 1 1 1 1 1 1 1 0 0 0 0 0 0 0 0 0 0 1 1 1 1 1 1 1 1
2 2 2 2 2 2 2 2 2 2 2 2 2 2 2 2 2 2 1 1 1 1 1 1 1 1 1 1 1 0 0 0 0 0 0 1 1 1 1 1 1 1 1
3 3 3 3 3 2 2 2 2 2 2 2 2 2 2 2 2 2 1 1 1 1 1 1 1 1 1 1 1 1 0 0 0 0 0 0 0 1 1 1 1 1 1
3 4 4 4 3 3 2 2 2 2 2 1 1 1 2 2 2 2 1 1 2 2 1 1 1 1 1 1 1 1 1 0 0 0 0 0 0 0 1 1 1 1 1
2 2 3 3 3 2 2 2 2 2 1 1 1 1 1 1 1 1 1 2 2 2 1 1 1 1 1 1 1 1 1 0 0 0 0 0 0 0 1 1 1 0 0
1 1 1 2 2 1 1 2 2 2 2 1 1 1 1 1 1 1 2 2 2 2 1 1 1 1 1 1 1 1 1 1 0 0 0 0 0 0 0 1 1 0 0
0 1 1 1 1 1 1 1 2 2 2 1 1 1 1 1 1 1 1 2 2 2 2 1 1 1 1 1 1 1 1 1 0 0 0 0 0 0 0 0 0 0 0
Wind_Speed
7 9 15 15 16 16 17 17 17 17 18 18 17 17 17 17 17 17 16 15 14 14 13 13 12 12 12 13 14 15 15 16 16 16 16 15 15 15 16 16 14 11 16
13 12 16 16 16 16 17 17 17 17 17 17 16 16 16 16 15 15 14 14 13 13 12 12 12 12 12 12 13 14 14 14 15 15 15 14 15 14 15 15 13 10 15
15 12 14 16 16 16 16 16 16 16 16 16 15 15 15 15 14 14 13 12 12 11 11 11 11 11 11 11 12 12 12 13 13 14 13 7 9 14 15 15 15 14 14
14 11 12 16 16 16 16 15 15 15 15 15 15 14 14 14 13 12 12 12 11 10 10 10 10 10 10 9 10 10 10 10 11 11 6 4 6 13 15 15 14 14 14
12 10 12 17 16 16 15 15 15 15 14 14 14 13 13 12 11 11 11 11 10 9 9 9 9 8 8 8 8 7 7 7 7 6 4 4 4 12 14 14 14 13 13
10 9 12 16 16 16 15 15 14 14 14 13 13 13 12 11 10 10 10 10 9 8 8 8 7 7 6 6 5 5 5 4 4 3 4 4 4 11 13 13 14 13 12
10 8 10 14 15 15 15 14 13 13 12 12 12 11 11 10 9 8 9 9 8 7 7 7 6 5 5 4 4 3 3 2 2 3 4 4 5 11 13 13 13 13 12
11 8 8 13 14 14 13 13 12 11 11 11 10 10 9 8 8 8 8 7 7 6 6 6 5 4 4 3 3 2 2 1 2 3 4 5 8 11 12 13 13 12 12
10 8 6 7 9 11 12 11 11 10 9 9 9 8 8 8 8 8 7 7 6 6 6 5 5 4 3 3 3 2 1 1 2 2 4 4 9 11 12 12 13 12 12
8 6 6 5 5 5 6 10 11 10 9 9 8 8 8 8 7 7 6 6 6 6 6 5 5 5 4 4 4 3 3 0 2 2 2 5 11 13 13 12 12 12 12
8 5 5 5 4 4 5 7 8 8 8 7 6 7 6 3 3 3 5 6 7 6 6 5 5 5 4 4 4 4 2 1 2 2 3 7 12 13 13 13 13 12 12
6 4 4 4 4 4 4 4 3 3 3 3 2 2 1 1 1 3 4 7 7 7 6 6 7 6 4 2 3 4 1 2 2 3 4 9 11 12 12 13 13 12 12
5 4 4 3 3 3 3 3 2 2 2 2 2 2 1 1 0 0 0 2 3 4 3 3 4 2 2 2 2 2 2 2 2 2 4 9 11 12 12 13 13 13 12
6 3 3 3 3 3 3 3 2 2 2 2 2 2 1 1 1 1 1 1 1 1 1 1 2 2 3 3 3 3 3 2 2 2 4 10 10 11 12 13 14 14 13
5 4 3 4 4 3 2 2 2 2 2 2 2 1 1 1 1 1 1 1 1 1 2 2 2 2 3 3 3 3 4 4 4 3 3 9 11 11 12 13 14 14 13
4 4 4 4 3 4 2 1 1 2 3 2 1 1 2 1 0 0 0 0 1 2 2 2 2 2 2 1 2 1 2 3 3 3 3 4 9 11 12 13 13 13 13
4 4 4 4 3 4 3 1 2 2 3 2 1 0 1 1 0 0 0 1 1 1 1 1 1 1 1 1 1 1 1 2 2 3 4 3 4 8 10 11 12 12 13
3 4 4 4 3 3 3 1 2 3 3 2 1 1 1 1 1 0 0 1 1 0 1 1 1 1 1 1 0 1 0 1 2 3 3 3 3 3 6 9 10 11 12
5 4 5 4 3 3 2 2 3 3 3 2 2 2 1 1 1 0 0 1 1 1 0 1 1 1 1 1 0 0 0 1 2 2 3 3 3 3 2 4 8 10 11
5 5 5 4 3 2 2 3 3 4 3 3 2 2 2 2 2 2 1 2 1 1 1 0 0 1 1 1 1 1 1 0 1 1 2 2 2 3 2 2 3 6 10
6 6 5 4 3 2 2 2 2 2 2 2 2 3 3 3 3 3 2 3 2 1 1 1 0 1 0 1 2 1 1 1 1 1 1 1 2 2 2 2 2 1 3
6 6 6 5 4 4 2 1 1 2 2 2 2 3 3 4 4 3 3 2 3 2 2 2 1 0 0 1 1 1 1 2 2 1 1 1 2 2 2 2 2 2 2
6 5 5 5 5 5 4 3 3 3 3 3 3 2 3 3 4 3 3 3 3 2 2 1 1 0 1 1 0 2 2 2 1 1 1 1 1 2 2 2 2 2 2
5 5 6 6 6 5 5 4 4 3 2 2 1 2 3 4 4 3 3 3 3 2 2 2 1 0 1 1 1 0 1 2 2 0 1 1 2 2 2 2 2 2 2
5 5 5 6 6 6 5 4 4 4 2 2 2 3 3 3 4 4 3 3 3 2 2 3 2 1 0 1 1 1 0 0 1 2 1 0 1 2 2 2 2 2 3
5 5 5 6 6 5 6 5 5 4 4 4 3 3 2 2 3 4 4 3 3 3 3 2 2 2 1 1 1 1 1 2 2 2 2 2 1 1 2 2 2 2 2
Wind_Direction
146 148 139 132 125 119 115 110 107 104 102 102 101 101 102 103 106 109 111 112 112 112 112 111 109 108 107 108 109 110 112 114 114 114 113 113 114 114 112 109 107 106 107
146 146 140 135 129 124 120 117 113 109 107 106 106 105 105 105 107 108 109 110 110 111 111 111 110 111 110 111 112 114 117 118 118 115 112 112 114 117 116 115 110 113 113
138 141 140 136 132 129 125 122 119 116 114 112 111 110 109 108 108 109 110 110 110 112 112 113 113 112 113 114 115 116 119 120 118 114 108 101 110 116 117 118 116 116 115
135 137 139 138 135 133 129 127 125 123 121 119 117 116 115 113 112 112 113 113 113 114 116 117 117 116 116 117 117 119 121 123 123 121 111 113 117 120 121 121 122 121 118
127 130 139 139 137 135 134 132 131 130 128 126 124 122 120 119 117 118 119 119 119 119 120 121 121 121 122 122 122 122 124 129 130 122 117 121 120 129 128 128 127 126 123
121 125 136 137 137 137 137 137 136 135 134 132 130 129 128 127 126 126 126 125 125 126 127 128 130 131 131 130 128 126 126 135 128 117 122 135 138 141 138 136 133 132 130
117 117 130 134 137 139 141 140 140 140 139 139 138 137 136 136 135 134 133 133 133 135 135 135 139 144 146 149 147 141 140 145 141 144 145 154 159 152 148 145 141 139 138
120 118 124 132 136 138 140 142 143 143 143 143 144 144 143 143 143 143 142 143 144 147 147 148 153 162 167 170 175 172 163 178 120 142 159 165 171 163 156 151 148 147 145
111 113 113 125 133 136 138 139 141 143 144 145 147 150 151 153 156 159 156 155 157 159 162 165 171 179 189 200 213 234 240 164 102 142 161 163 175 169 162 160 156 154 152
96 103 106 112 121 129 136 141 141 143 145 147 150 154 158 163 168 173 171 174 176 179 180 184 189 198 207 218 232 248 256 135 121 151 153 179 181 176 168 165 162 161 160
92 89 102 106 111 123 142 143 141 144 143 143 150 160 158 158 169 179 187 190 194 193 196 200 205 212 217 228 242 250 249 146 147 156 173 183 181 179 172 171 170 167 167
98 99 96 100 107 119 142 124 123 131 129 124 122 142 141 152 199 207 213 207 206 206 209 210 219 223 220 228 254 256 206 170 163 175 192 188 183 180 176 174 174 173 172
115 103 98 105 117 122 115 122 120 121 126 123 120 124 132 134 189 213 211 224 220 223 221 225 231 226 217 217 235 231 201 191 184 196 199 190 185 183 182 181 183 182 180
108 110 111 119 114 112 122 131 134 133 132 128 136 142 128 128 159 175 191 200 207 224 226 224 230 229 233 234 227 216 203 200 195 194 198 192 186 188 189 190 192 188 184
100 83 95 102 103 102 104 123 134 134 131 122 106 101 110 130 172 178 187 202 208 207 198 207 226 232 240 246 239 227 206 199 193 189 199 192 186 188 194 200 196 189 187
79 82 93 88 99 98 94 103 132 138 117 106 118 157 123 112 204 147 121 219 242 232 218 197 211 221 227 232 254 233 207 198 195 185 187 189 189 190 194 204 201 192 190
90 82 94 106 87 94 94 97 115 114 106 106 102 69 83 95 284 94 162 217 241 229 222 213 226 214 215 202 248 241 205 198 196 190 183 183 189 195 199 205 204 195 194
92 80 77 91 88 91 90 98 104 98 100 98 93 65 53 44 13 41 202 247 262 210 177 197 193 198 216 183 214 270 223 199 201 200 190 184 185 188 203 211 210 199 197
89 79 75 63 66 71 81 87 88 89 91 90 83 70 51 38 16 73 191 293 324 358 1 232 178 174 184 164 186 292 224 220 202 196 186 179 176 170 180 213 209 200 195
80 71 66 57 45 55 81 75 70 68 66 64 67 59 47 35 37 43 43 4 16 27 5 17 158 156 171 153 114 47 6 266 165 154 177 166 161 159 165 190 201 203 194
71 65 56 53 36 54 73 76 75 66 60 49 51 54 51 44 44 46 34 21 21 22 349 338 84 110 126 121 101 46 353 16 59 94 149 148 152 154 153 166 170 174 188
74 68 57 47 37 38 47 59 83 93 75 65 52 51 51 47 42 45 36 29 22 20 20 13 30 177 227 153 147 150 304 349 6 22 85 144 157 152 155 170 150 152 152
69 65 66 48 41 38 43 60 63 53 45 39 36 30 27 43 44 38 28 32 26 32 16 354 5 33 258 284 165 157 168 206 293 353 20 63 127 128 145 155 146 135 132
82 69 61 52 43 35 39 66 79 81 73 39 35 41 28 34 33 30 26 26 22 22 10 346 11 308 236 255 279 261 187 158 164 204 344 14 49 86 106 117 119 118 112
89 75 63 55 45 37 41 55 73 72 65 50 46 45 33 22 18 19 24 21 16 10 3 356 342 338 274 244 231 221 180 150 149 161 197 350 30 41 74 86 94 97 94
85 74 66 61 47 39 44 50 64 73 68 59 46 41 28 13 6 11 16 13 10 6 356 347 343 345 310 260 254 214 191 189 181 167 174 165 109 29 49 58 73 87 91